TimeAKDT,TemperatureF,Dew PointF,Humidity,Sea Level PressureIn,VisibilityMPH,Wind Direction,Wind SpeedMPH,Gust SpeedMPH,PrecipitationIn,Events,Conditions,WindDirDegrees,DateUTC
12:16 AM,48.2,44.6,87,29.90,3.0,West,4.6,-,N/A,,Overcast,260,2013-05-17 08:16:00
12:36 AM,48.2,44.6,87,29.89,1.5,Calm,Calm,-,N/A,,Overcast,0,2013-05-17 08:36:00
12:56 AM,46.4,44.6,93,29.89,10.0,SSW,3.5,-,N/A,,Overcast,200,2013-05-17 08:56:00
1:16 AM,46.4,44.6,93,29.88,10.0,Calm,Calm,-,N/A,,Overcast,0,2013-05-17 09:16:00
6:18 AM,46.4,39.2,76,29.84,10.0,Calm,Calm,-,N/A,Fog,Patches of Fog,0,2013-05-17 14:18:00
6:51 AM,46.4,39.2,76,29.84,10.0,Calm,Calm,-,N/A,Fog,Patches of Fog,0,2013-05-17 14:51:00
7:52 AM,48.2,39.2,71,29.82,10.0,Calm,Calm,-,N/A,Fog,Patches of Fog,0,2013-05-17 15:52:00
8:36 AM,51.8,46.4,82,29.81,10.0,Calm,Calm,-,N/A,,Mostly Cloudy,0,2013-05-17 16:36:00
8:56 AM,51.8,46.4,82,29.81,10.0,South,3.5,-,N/A,,Overcast,190,2013-05-17 16:56:00
9:16 AM,51.8,46.4,82,29.81,10.0,WSW,8.1,-,N/A,,Overcast,240,2013-05-17 17:16:00
9:36 AM,51.8,46.4,82,29.81,10.0,WSW,9.2,-,N/A,,Overcast,240,2013-05-17 17:36:00
9:56 AM,51.8,46.4,82,29.82,10.0,SW,6.9,-,N/A,,Overcast,220,2013-05-17 17:56:00
10:16 AM,51.8,44.6,76,29.82,10.0,WSW,5.8,-,N/A,,Overcast,240,2013-05-17 18:16:00
10:36 AM,51.8,46.4,82,29.82,10.0,Calm,Calm,-,N/A,,Overcast,0,2013-05-17 18:36:00
10:56 AM,51.8,46.4,82,29.82,10.0,North,5.8,-,0.01,,Overcast,350,2013-05-17 18:56:00
11:16 AM,51.8,46.4,82,29.82,10.0,West,6.9,-,N/A,,Overcast,270,2013-05-17 19:16:00
11:36 AM,51.8,48.2,88,29.82,10.0,West,5.8,-,N/A,,Overcast,280,2013-05-17 19:36:00
11:56 AM,53.6,48.2,82,29.82,10.0,ESE,6.9,-,N/A,,Overcast,110,2013-05-17 19:56:00
12:16 PM,51.8,46.4,82,29.82,10.0,North,3.5,-,N/A,,Overcast,360,2013-05-17 20:16:00
12:36 PM,51.8,46.4,82,29.82,10.0,NNE,6.9,-,N/A,,Overcast,30,2013-05-17 20:36:00
12:56 PM,53.6,46.4,77,29.81,10.0,East,4.6,-,N/A,,Overcast,100,2013-05-17 20:56:00
1:16 PM,53.6,46.4,77,29.81,10.0,Calm,Calm,-,N/A,,Overcast,0,2013-05-17 21:16:00
1:36 PM,53.6,48.2,82,29.81,10.0,SW,5.8,-,N/A,,Overcast,230,2013-05-17 21:36:00
1:56 PM,51.8,46.4,82,29.81,-9999.0,West,4.6,-,0.01,,Overcast,260,2013-05-17 21:56:00
2:16 PM,53.6,46.4,77,29.81,9.0,Calm,Calm,-,N/A,,Overcast,0,2013-05-17 22:16:00
2:36 PM,51.8,46.4,82,29.81,7.0,SW,8.1,-,0.01,,Overcast,230,2013-05-17 22:36:00
2:56 PM,50.0,46.4,87,29.82,7.0,WSW,5.8,-,0.03,,Overcast,240,2013-05-17 22:56:00
3:16 PM,51.8,46.4,82,29.82,7.0,Calm,Calm,-,0.03,,Overcast,0,2013-05-17 23:16:00
3:36 PM,51.8,46.4,82,29.81,7.0,Calm,Calm,-,0.04,,Overcast,0,2013-05-17 23:36:00
3:56 PM,51.8,46.4,82,29.81,7.0,WNW,4.6,-,0.05,,Overcast,300,2013-05-17 23:56:00
4:16 PM,51.8,46.4,82,29.81,7.0,NNW,3.5,-,0.01,,Overcast,330,2013-05-18 00:16:00
4:36 PM,51.8,46.4,82,29.80,7.0,Calm,Calm,-,0.01,,Overcast,0,2013-05-18 00:36:00
4:56 PM,51.8,46.4,82,29.79,10.0,North,3.5,-,0.01,,Unknown,10,2013-05-18 00:56:00
5:16 PM,53.6,48.2,82,29.79,10.0,East,5.8,-,N/A,,Overcast,100,2013-05-18 01:16:00
5:36 PM,53.6,46.4,77,29.78,10.0,SE,9.2,-,N/A,,Mostly Cloudy,130,2013-05-18 01:36:00
5:56 PM,53.6,44.6,72,29.78,10.0,ESE,5.8,-,N/A,,Overcast,120,2013-05-18 01:56:00
6:16 PM,53.6,44.6,72,29.77,10.0,ESE,6.9,-,N/A,,Overcast,120,2013-05-18 02:16:00
6:36 PM,53.6,44.6,72,29.77,10.0,ESE,6.9,-,N/A,,Overcast,120,2013-05-18 02:36:00
6:56 PM,53.6,44.6,72,29.77,10.0,ESE,8.1,-,N/A,,Overcast,120,2013-05-18 02:56:00
7:16 PM,53.6,44.6,72,29.77,10.0,ESE,6.9,-,N/A,,Overcast,110,2013-05-18 03:16:00
7:36 PM,53.6,44.6,72,29.77,10.0,East,6.9,16.1,N/A,,Overcast,100,2013-05-18 03:36:00
7:56 PM,53.6,44.6,72,29.77,10.0,ESE,4.6,-,N/A,,Overcast,120,2013-05-18 03:56:00
8:16 PM,51.8,44.6,76,29.77,10.0,Calm,Calm,-,N/A,,Overcast,0,2013-05-18 04:16:00
8:36 PM,53.6,44.6,72,29.77,10.0,SE,4.6,-,N/A,,Overcast,130,2013-05-18 04:36:00
8:56 PM,53.6,44.6,72,29.77,10.0,ESE,5.8,-,N/A,,Overcast,120,2013-05-18 04:56:00
9:16 PM,51.8,44.6,76,29.77,10.0,SE,5.8,-,N/A,,Overcast,130,2013-05-18 05:16:00
9:36 PM,51.8,44.6,76,29.77,10.0,East,4.6,-,N/A,,Overcast,100,2013-05-18 05:36:00
9:56 PM,51.8,44.6,76,29.77,10.0,SE,4.6,-,N/A,,Mostly Cloudy,130,2013-05-18 05:56:00
10:16 PM,51.8,44.6,76,29.77,10.0,SE,5.8,-,N/A,,Mostly Cloudy,130,2013-05-18 06:16:00
10:36 PM,51.8,44.6,76,29.77,10.0,ESE,6.9,-,N/A,,Mostly Cloudy,110,2013-05-18 06:36:00
10:56 PM,51.8,44.6,76,29.77,10.0,East,3.5,-,N/A,,Overcast,90,2013-05-18 06:56:00
11:16 PM,50.0,44.6,82,29.77,10.0,SE,3.5,-,0.01,,Overcast,130,2013-05-18 07:16:00
11:36 PM,50.0,44.6,82,29.77,9.0,ESE,4.6,-,0.03,,Overcast,120,2013-05-18 07:36:00
11:56 PM,50.0,44.6,82,29.78,9.0,ESE,3.5,-,0.05,,Overcast,120,2013-05-18 07:56:00